INTELSAT 33E DEB, 62005

Orbit data source: Space-Track

INTELSAT 33E DEB, 62005 is space debris in GEO originally from a launch on Wed, 24 Aug 2016 UTC launched from the French Guiana (FRGUI). Debris objects in space refer to the collection of defunct objects orbiting the Earth. Examples of debris include non-operational satellites, rocket bodies, and fragments generated from explosions, collisions, or faulty payload assembly.

Not visible in the next 10 days
Identifier
62005, 2016-053X
Orbit
GEO
Country
Flag of USUS / ITSO
Related business
Manufacturer
Boeing/ES
Mission
Spacecraft
Bus & Motor
Unknown
Mass
Unknown
Launch date (UTC)
2016-08-24 (10 years ago)
Launch vehicle
Unknown
Launch site
French Guiana (FRGUI)
Object type
Payload
Rocket body
Debris
Shape & HBR
Unknown shape, 1.1 m
Radar Cross Section
RCS unknown

Expand to show TLE details & history
Last TLE update: 23 hours ago

TLE from 23 hours ago
0 INTELSAT 33E DEB
1 62005U 16053X   26255.29841814 -.00000090  00000-0  00000-0 0  9995
2 62005   1.9405  93.5380 0272335 252.7598 104.9710  1.04572802  7224
Epoch: 2026-09-12T07:09Z
TLE epoch observation values (Epoch: 2026-09-12T07:09:43.327Z)
Latitude
Longitude
-4.47213°
Altitude
34,939.316 km
Speed
3.094 km/s
True Right ascension
06h 17m 04s
True Declination
0° 00' 00"
Sunlit
Object was in daylight at epoch
Visualization orbit readout
Latitude
Unknown
Longitude
Unknown
Altitude
Unknown
Speed
Unknown
Apparent Right ascension
Unknown
Apparent Declination
Unknown
Sunlit
N/A
Visualization observer readout
Local Sidereal Time
22:09:12
Azimuth
Unknown
Elevation
Unknown
Doppler factor
Unknown
Orbital elements
Apogee altitude
35,740.097 km
Perigee altitude
33,506.862 km
Semi-major axis
41,001.617 km
Eccentricity
0.02723
Inclination
1.9405°
RAAN
93.538°
Arg. of periapsis
252.7598°
True anomaly
107.95816°
Mean anomaly
104.971°
Eccentric anomaly
106.46736°
Mean motion
0.26142 °/min
Orbital period
1,377.09 mins
BSTAR
0
Loading maneuver chart data...
Computing Atmospheric mass density...
Loading historical data...
Loading historical data...
Loading historical data...
Loading historical data...
Loading historical data...
Loading historical data...
Loading historical data...

Documentation

Showing up to 5 results
|